Flag for U.S.A. Weather past 2 weeks in Sheboygan, Wisconsin, U.S.A.

Now
50 °F

Clear.


Feels Like: 49 °F
Forecast: 51 / 59 °F
Wind: 3 mph from Southwest

Location: Sheboygan County Memorial Airport

Current Time: Sep 17, 2014 at 11:34:23 PM

Latest Report: Sep 17, 2014 at 10:53 PM


Visibility: 10 mi

Pressure: 30.02 "Hg

Humidity: 93%

Dew point: 48 °F

Location of SheboyganLocation

Historic Weather in Sheboygan — Graph

°F

Sheboygan temperature yesterday

Maximum temperature yesterday: 64 °F (at 2:53 PM)
Minimum temperature yesterday: 39 °F (at 5:53 AM)
Average temperature yesterday: 52 °F

Past Weeks' High & Low Weather Summary

 TemperatureHumidityPressure
High81 °F (Sep 4, 11:53 AM)100% (Sep 9, 6:02 AM)30.40 "Hg (Sep 9, 6:02 AM)
Low39 °F (Sep 16, 5:53 AM)38% (Sep 16, 2:53 PM)29.43 "Hg (Sep 10, 1:53 PM)
Average59 °F78%30.07 "Hg
* Reported Sep 2 9:53 PM — Sep 17 9:53 PM, Sheboygan, Weather by CustomWeather, © 2014

Note: Actual official high and low records may vary slightly from our data, if they occured in-between our weather recording intervals... More about our weather records

Advertising

Sheboygan weather history for previous 24 hours

 ConditionsComfort  
Time TempWeatherWind HumidityBarometerVisibility
9:53 PM
Sep 17
51 °FClear.3 mph89%30.01 "Hg10 mi
8:53 PM54 °FClear.No wind83%30.00 "Hg10 mi
7:53 PM54 °FSunny.5 mph83%29.99 "Hg10 mi
6:53 PM60 °FSunny.6 mph72%29.98 "Hg10 mi
5:53 PM67 °FPassing clouds.3 mph51%29.97 "Hg10 mi
4:53 PM68 °FScattered clouds.6 mph49%29.97 "Hg10 mi
3:53 PM68 °FPassing clouds.9 mph47%29.97 "Hg10 mi
2:53 PM69 °FScattered clouds.12 mph44%29.97 "Hg10 mi
1:53 PM68 °FBroken clouds.5 mph44%29.98 "Hg10 mi
12:53 PM67 °FScattered clouds.9 mph45%29.99 "Hg10 mi
11:53 AM65 °FScattered clouds.7 mph49%29.99 "Hg10 mi
10:53 AM64 °FSunny.8 mph54%30.00 "Hg10 mi
9:53 AM62 °FSunny.7 mph54%30.01 "Hg10 mi
8:53 AM56 °FSunny.5 mph72%30.02 "Hg10 mi
7:53 AM48 °FSunny.No wind86%30.04 "HgN/A
6:53 AM41 °FClear.No wind96%30.04 "Hg10 mi
5:53 AM42 °FClear.3 mph89%30.03 "Hg10 mi
4:53 AM42 °FClear.No wind92%30.03 "Hg10 mi
3:53 AM41 °FClear.5 mph93%30.03 "Hg10 mi
2:53 AM43 °FClear.No wind93%30.05 "Hg10 mi
1:53 AM45 °FClear.No wind90%30.05 "Hg10 mi
12:53 AM45 °FClear.No wind90%30.06 "Hg10 mi
11:53 PM
Sep 16
45 °FClear.No wind86%30.07 "Hg10 mi
Weather by CustomWeather, © 2014

See weather overviewHow to use our weather pages